Home   Weather   Township of Fairfield   Past weeks
Flag for USA

Past Weather in Township of Fairfield, Iowa, USA — Yesterday and Last 2 Weeks

Now
70 °F

Fog.


Feels Like: 68 °F
Forecast: 89 / 71 °F
Wind: No wind

Location: Waterloo Municipal Airport

Current Time: Jul 6, 2020 at 5:21:18 am

Latest Report: Jul 6, 2020 at 4:54 am


Visibility: 6 mi

Pressure: 29.95 "Hg

Humidity: 87%

Dew Point: 66 °F

Location of Township of FairfieldLocation

Past Weather in Township of Fairfield — Graph

°F

Township of Fairfield Temperature Yesterday

Maximum temperature yesterday: 92 °F (at 1:54 pm)
Minimum temperature yesterday: 69 °F (at 4:54 am)
Average temperature yesterday: 81 °F

High & Low Weather Summary for the Past Weeks

 TemperatureHumidityPressure
High92 °F (Jul 5, 1:54 pm)93% (Jun 22, 4:16 am)30.08 "Hg (Jun 22, 4:16 am)
Low58 °F (Jun 25, 5:54 am)36% (Jun 25, 2:54 pm)29.65 "Hg (Jun 28, 11:54 am)
Average77 °F72%29.87 "Hg
* Reported Jun 21 3:54 am — Jul 6 3:54 am, Township of Fairfield. Weather by CustomWeather, © 2020

Note: Actual official high and low records may vary slightly from our data, if they occured in-between our weather recording intervals... More about our weather records

Township of Fairfield Weather History for the Previous 24 Hours

Scroll right to see more
 ConditionsComfort  
Time TempWeatherWind HumidityBarometerVisibility
3:54 am
Mon, Jul 6
72 °FClear.No wind84%29.94 "Hg7 mi
2:54 am71 °FClear.No wind87%29.95 "Hg9 mi
1:54 am73 °FClear.No wind84%29.95 "Hg10 mi
12:54 am75 °FClear.No wind82%29.95 "Hg10 mi
11:54 pm
Sun, Jul 5
76 °FClear.No wind82%29.95 "Hg10 mi
10:54 pm76 °FClear.No wind82%29.95 "Hg10 mi
9:54 pm79 °FClear.No wind74%29.94 "Hg10 mi
8:54 pm81 °FClear.3 mph72%29.93 "Hg10 mi
7:54 pm85 °FSunny.No wind63%29.92 "Hg10 mi
6:54 pm87 °FSunny.No wind53%29.92 "Hg10 mi
5:54 pm83 °FSunny.9 mph55%29.93 "Hg10 mi
5:19 pm83 °FPartly sunny.23 mph59%29.95 "Hg10 mi
4:54 pm89 °FPartly sunny.5 mph48%29.93 "Hg10 mi
3:54 pm92 °FSunny.No wind46%29.93 "Hg10 mi
2:54 pm92 °FPartly sunny.N/A46%29.96 "Hg10 mi
1:54 pm92 °FOvercast.No wind46%29.97 "Hg10 mi
12:54 pm90 °FSunny.No wind47%29.97 "Hg10 mi
11:54 am89 °FSunny.5 mph48%29.98 "Hg10 mi
10:54 am88 °FSunny.N/A48%29.99 "Hg10 mi
9:54 am85 °FSunny.No wind57%30.00 "Hg10 mi
8:54 am82 °FSunny.No wind65%30.01 "Hg9 mi
7:01 am73 °FFog.No wind88%30.00 "Hg1 mi
6:41 am71 °FFog.No wind87%30.00 "Hg2 mi
6:01 am69 °FFog.No wind87%30.00 "Hg2 mi
Weather by CustomWeather, © 2020

See weather overview